This demonstration page uses our WeatherBlox Daily Observations layout. Learn more.

Left ArrowRight Arrow

Hourly Observations for January 2, 2022

Temp ( °F °C ) Dew Point ( °F °C ) Humidity (%) Winds ( mph kmh ) Pressure ( in mb ) Visibility ( mi km ) Precip ( " mm )
12:52 am 00:52 Mostly Clear 0 -17.8 -9 -22.8 65 65 NNW 13 20 30.34 1027 10 16 0.00 0.00
1:52 am 01:52 Clear -2 -18.9 -9 -22.8 72 72 NNW 12 19 30.36 1028 10 16 0.00 0.00
2:52 am 02:52 Clear -3 -19.4 -10 -23.3 71 71 NNW 9 15 30.37 1028 10 16 0.00 0.00
3:52 am 03:52 Clear -4 -20 -10 -23.3 75 75 NNW 7 11 30.37 1028 10 16 0.00 0.00
4:52 am 04:52 Clear -6 -21.1 -12 -24.4 75 75 N 6 9 30.38 1029 10 16 0.00 0.00
5:52 am 05:52 Clear -7 -21.7 -12 -24.4 79 79 N 5 7 30.39 1029 10 16 0.00 0.00
6:52 am 06:52 Clear -6 -21.1 -11 -23.9 78 78 Calm 30.39 1029 10 16 0.00 0.00
7:52 am 07:52 Sunny -4 -20 -11 -23.9 71 71 Calm 30.39 1029 10 16 0.00 0.00
8:52 am 08:52 Sunny -1 -18.3 -9 -22.8 68 68 Calm 30.41 1030 10 16 0.00 0.00
9:52 am 09:52 Mostly Sunny 2 -16.7 -7 -21.7 65 65 Calm 30.43 1031 10 16 0.00 0.00
10:52 am 10:52 Mostly Sunny 3 -16.1 -6 -21.1 66 66 Calm 30.42 1030 10 16 0.00 0.00
11:52 am 11:52 Mostly Sunny 7 -13.9 -4 -20 60 60 S 6 9 30.40 1029 10 16 0.00 0.00
12:52 pm 12:52 Mostly Sunny 10 -12.2 -3 -19.4 55 55 S 9 15 30.38 1029 10 16 0.00 0.00
1:52 pm 13:52 Mostly Sunny 12 -11.1 -3 -19.4 51 51 S 8 13 30.36 1028 10 16 0.00 0.00
2:52 pm 14:52 Mostly Sunny 13 -10.6 -2 -18.9 51 51 S 8 13 30.35 1028 10 16 0.00 0.00
3:52 pm 15:52 Mostly Sunny 13 -10.6 -2 -18.9 51 51 S 10 17 30.35 1028 10 16 0.00 0.00
4:52 pm 16:52 Mostly Sunny 12 -11.1 -2 -18.9 53 53 S 10 17 30.37 1029 10 16 0.00 0.00
5:52 pm 17:52 Mostly Clear 11 -11.7 -2 -18.9 55 55 SSE 12 19 30.38 1029 10 16 0.00 0.00
6:52 pm 18:52 Clear 10 -12.2 -2 -18.9 58 58 S 9 15 30.38 1029 10 16 0.00 0.00
7:52 pm 19:52 Clear 9 -12.8 -2 -18.9 61 61 SSE 10 17 30.38 1029 10 16 0.00 0.00
8:52 pm 20:52 Clear 7 -13.9 -2 -18.9 66 66 SSE 10 17 30.38 1029 10 16 0.00 0.00
9:52 pm 21:52 Clear 7 -13.9 -2 -18.9 66 66 SSE 10 17 30.37 1029 10 16 0.00 0.00
10:52 pm 22:52 Clear 7 -13.9 -1 -18.3 70 70 SSE 10 17 30.36 1028 10 16 0.00 0.00
11:52 pm 23:52 Clear 6 -14.4 -1 -18.3 73 73 SSE 10 17 30.35 1028 10 16 0.00 0.00

Powered by AerisWeather